This demonstration page uses our WeatherBlox Daily Observations layout. Learn more.

Left ArrowRight Arrow

Hourly Observations for March 22, 2021

Temp ( °F °C ) Dew Point ( °F °C ) Humidity (%) Winds ( mph kmh ) Pressure ( in mb ) Visibility ( mi km ) Precip ( " mm )
12:53 am 00:53 Cloudy 38 3.3 20 -6.7 48 48 SSW 13 20 29.88 1012 10 16 N/A
2:53 am 02:53 Cloudy 38 3.3 21 -6.1 51 51 SW 15 24 29.83 1010 10 16 N/A
3:53 am 03:53 Cloudy 38 3.3 22 -5.6 52 52 SW 14 22 29.80 1009 10 16 N/A
4:53 am 04:53 Mostly Cloudy 34 1.1 22 -5.6 61 61 SW 13 20 29.80 1009 10 16 N/A
5:53 am 05:53 Cloudy 33 0.6 21 -6.1 61 61 SW 12 19 29.80 1009 10 16 N/A
6:53 am 06:53 Clear 32 undefined 20 -6.7 61 61 SW 16 26 29.80 1009 10 16 N/A
7:53 am 07:53 Sunny 33 0.6 21 -6.1 61 61 SW 14 22 29.80 1009 10 16 N/A
8:53 am 08:53 Sunny 36 2.2 22 -5.6 57 57 SW 13 20 29.80 1009 10 16 N/A
9:53 am 09:53 Sunny 39 3.9 22 -5.6 50 50 SW 15 24 29.79 1009 10 16 N/A
10:53 am 10:53 Sunny 43 6.1 21 -6.1 42 42 WSW 20 31 29.79 1009 10 16 N/A
11:53 am 11:53 Sunny 46 7.8 20 -6.7 35 35 W 22 35 29.77 1008 10 16 N/A
12:53 pm 12:53 Sunny 48 8.9 20 -6.7 33 33 WSW 18 30 29.77 1008 10 16 N/A
1:53 pm 13:53 Mostly Sunny 50 10 19 -7.2 29 29 WSW 13 20 29.75 1008 10 16 N/A
2:53 pm 14:53 Partly Cloudy 52 11.1 17 -8.3 25 25 WNW 10 17 29.75 1007 10 16 N/A
3:53 pm 15:53 Mostly Cloudy 53 11.7 17 -8.3 24 24 W 17 28 29.75 1007 10 16 N/A
4:53 pm 16:53 Mostly Sunny 52 11.1 16 -8.9 24 24 NW 8 13 29.76 1008 10 16 N/A
5:53 pm 17:53 Mostly Sunny 51 10.6 16 -8.9 25 25 WSW 9 15 29.77 1008 10 16 N/A
6:53 pm 18:53 Cloudy 49 9.4 16 -8.9 27 27 WNW 13 20 29.79 1009 10 16 N/A
7:53 pm 19:53 Cloudy 47 8.3 17 -8.3 30 30 WNW 12 19 29.82 1010 10 16 N/A
8:53 pm 20:53 Cloudy 45 7.2 19 -7.2 35 35 W 7 11 29.85 1011 10 16 N/A
9:53 pm 21:53 Cloudy 45 7.2 20 -6.7 37 37 N 12 19 29.87 1012 10 16 N/A
10:53 pm 22:53 Cloudy 40 4.4 22 -5.6 49 49 N 8 13 29.90 1013 10 16 N/A
11:53 pm 23:53 Mostly Cloudy 38 3.3 23 -5 55 55 VRB 6 9 29.93 1014 10 16 N/A

Powered by AerisWeather